Westfield, MA

9:42 AM EDT on July 23, 2017 (GMT -0400)
Barnes Municipal

Weather History for KBAF - January, 2014

Change the Weather History Date:

Tuesday, January 14, 2014

  Actual Average Record
Temperature  
Mean Temperature 42 °F -  
Max Temperature 45 °F 28 °F 55 °F (2005)
Min Temperature 39 °F 12 °F -5 °F (2004)
Degree Days  
Heating Degree Days 23    
Moisture  
Dew Point 40 °F    
Average Humidity 91    
Maximum Humidity 100    
Minimum Humidity 73    
Precipitation  
Precipitation 0.53 in - - ()
Sea Level Pressure  
Sea Level Pressure 29.75 in    
Wind  
Wind Speed 6 mph (South)    
Max Wind Speed 10 mph    
Max Gust Speed -    
Visibility 5 miles    
Events Fog , Rain    
Averages and records for this station are not official NWS values.
T = Trace of Precipitation, MM = Missing Value Source: NWS Daily Summary

Daily Weather History Graph

Daily Weather History Graph

Search for Another Location

Airport or City:

Trip Planner

Search our weather history database for the weather conditions in past years. The results will help you decide how hot, cold, wet, or windy it might be!

Date:

Astronomy

Jan. 14, 2014 Rise Set
Actual Time 7:17 AM EST 4:42 PM EST
Civil Twilight 6:46 AM EST 5:13 PM EST
Nautical Twilight 6:11 AM EST 5:48 PM EST
Astronomical Twilight 5:38 AM EST 6:22 PM EST
Moon 3:46 PM EST (1/14) 5:49 AM EST (1/14)
Length of Visible Light 10h 27m
Length of Day
9h 25m
Waxing Gibbous, 98% of the Moon is Illuminated
Jan 14
Waxing Gibbous
Jan 15
Full
Jan 24
Last Quarter
Jan 30
New
Feb 6
First Quarter

Hourly Weather History & Observations

Time (EST) Temp. Windchill Dew Point Humidity Pressure Visibility Wind Dir Wind Speed Gust Speed Precip Events Conditions
12:53 AM 41.0 °F 35.8 °F 35.1 °F 79% 29.88 in 10.0 mi South 8.1 mph - N/A   Clear
1:53 AM 42.1 °F 38.4 °F 36.0 °F 79% 29.86 in 10.0 mi South 5.8 mph - N/A   Clear
2:53 AM 39.9 °F 35.8 °F 35.1 °F 83% 29.84 in 10.0 mi South 5.8 mph - N/A   Clear
3:53 AM 41.0 °F 35.8 °F 36.0 °F 82% 29.82 in 10.0 mi SSE 8.1 mph - N/A   Clear
4:53 AM 39.9 °F 35.1 °F 36.0 °F 86% 29.83 in 10.0 mi South 6.9 mph - N/A   Partly Cloudy
5:53 AM 41.0 °F 37.1 °F 37.0 °F 86% 29.81 in 10.0 mi South 5.8 mph - N/A   Mostly Cloudy
6:53 AM 42.1 °F 37.7 °F 39.0 °F 89% 29.82 in 10.0 mi South 6.9 mph - N/A   Overcast
7:53 AM 44.1 °F 40.8 °F 42.1 °F 93% 29.80 in 7.0 mi SSE 5.8 mph - 0.01 in Rain Light Rain
8:44 AM 44.1 °F 39.5 °F 42.1 °F 93% 29.81 in 9.0 mi South 8.1 mph - 0.02 in Rain Light Rain
8:53 AM 44.1 °F 40.1 °F 42.1 °F 93% 29.82 in 8.0 mi South 6.9 mph - 0.03 in Rain Light Rain
9:02 AM 44.1 °F 40.1 °F 42.1 °F 93% 29.80 in 8.0 mi South 6.9 mph - 0.00 in Rain Light Rain
9:27 AM 44.1 °F 40.1 °F 42.1 °F 93% 29.80 in 5.0 mi South 6.9 mph - 0.01 in Rain Light Rain
9:53 AM 44.1 °F 39.5 °F 42.1 °F 93% 29.81 in 7.0 mi South 8.1 mph - 0.02 in Rain Light Rain
10:02 AM 44.1 °F 40.1 °F 42.1 °F 93% 29.80 in 6.0 mi South 6.9 mph - 0.01 in Rain Light Rain
10:26 AM 44.1 °F 39.5 °F 42.1 °F 93% 29.79 in 6.0 mi SSE 8.1 mph - 0.02 in Rain Light Rain
10:53 AM 45.0 °F 42.6 °F 42.1 °F 90% 29.78 in 7.0 mi South 4.6 mph - 0.02 in Rain Light Rain
11:53 AM 45.0 °F 41.8 °F 43.0 °F 93% 29.76 in 3.0 mi South 5.8 mph - 0.05 in Rain Light Rain
12:53 PM 45.0 °F 41.8 °F 43.0 °F 93% 29.73 in 4.0 mi South 5.8 mph - 0.05 in Rain Light Rain
1:01 PM 45.0 °F 42.6 °F 43.0 °F 93% 29.72 in 5.0 mi South 4.6 mph - 0.01 in Rain Light Rain
1:53 PM 45.0 °F 43.5 °F 43.0 °F 93% 29.71 in 6.0 mi South 3.5 mph - 0.03 in Rain Light Rain
2:34 PM 45.0 °F 43.5 °F 43.0 °F 93% 29.68 in 5.0 mi Variable 3.5 mph - 0.03 in Rain Light Rain
2:53 PM 45.0 °F - 43.0 °F 93% 29.68 in 5.0 mi Calm Calm - 0.04 in Rain Light Rain
2:56 PM 45.0 °F - 43.0 °F 93% 29.67 in 3.0 mi Calm Calm - 0.00 in Rain Light Rain
3:48 PM 42.8 °F - 42.8 °F 100% 29.69 in 1.0 mi Calm Calm - 0.05 in Rain Light Rain
3:53 PM 44.1 °F - 42.1 °F 93% 29.70 in 1.0 mi Calm Calm - 0.05 in Rain Light Rain
4:10 PM 43.0 °F 41.3 °F 42.1 °F 97% 29.68 in 1.0 mi NW 3.5 mph - 0.03 in Rain Light Rain
4:20 PM 43.0 °F 41.3 °F 42.1 °F 97% 29.66 in 1.0 mi North 3.5 mph - 0.04 in Rain Light Rain
4:53 PM 43.0 °F - 41.0 °F 93% 29.69 in 1.0 mi Calm Calm - 0.07 in Rain Light Rain
4:57 PM 43.0 °F - 41.0 °F 93% 29.68 in 0.5 mi Calm Calm - 0.00 in Fog , Rain Light Rain
5:53 PM 41.0 °F - 39.9 °F 96% 29.67 in 0.5 mi Calm Calm - 0.07 in Fog , Rain Light Rain
6:53 PM 39.9 °F - 39.0 °F 97% 29.69 in 0.5 mi Calm Calm - 0.08 in Fog , Rain Light Rain
7:22 PM 41.0 °F - 39.0 °F 93% 29.67 in 1.0 mi Calm Calm - 0.00 in Rain Light Rain
7:29 PM 39.9 °F 37.8 °F 39.0 °F 97% 29.65 in 0.8 mi East 3.5 mph - 0.00 in Rain Light Rain
7:53 PM 39.0 °F 36.8 °F 37.9 °F 96% 29.69 in 0.5 mi South 3.5 mph - 0.01 in Fog , Rain Light Rain
8:44 PM 41.0 °F 37.1 °F 39.0 °F 93% 29.70 in 2.0 mi WSW 5.8 mph - 0.00 in   Overcast
8:53 PM 41.0 °F 36.4 °F 39.9 °F 96% 29.73 in 7.0 mi West 6.9 mph - 0.00 in   Overcast
9:53 PM 42.1 °F 38.4 °F 39.0 °F 89% 29.77 in 10.0 mi WNW 5.8 mph - 0.00 in Rain Light Rain
10:53 PM 41.0 °F 36.4 °F 35.1 °F 79% 29.80 in 10.0 mi WNW 6.9 mph - 0.00 in   Scattered Clouds
11:53 PM 39.9 °F 33.4 °F 32.0 °F 73% 29.81 in 10.0 mi WNW 10.4 mph - N/A   Clear